TimeCST,TemperatureF,Dew PointF,Humidity,Sea Level PressureIn,VisibilityMPH,Wind Direction,Wind SpeedMPH,Gust SpeedMPH,PrecipitationIn,Events,Conditions,WindDirDegrees,DateUTC
12:15 AM,24.1,21.9,91,29.82,2.0,Calm,Calm,-,N/A,,Overcast,0,2013-12-21 06:15:00
12:26 AM,24.1,23.0,96,29.81,1.8,Calm,Calm,-,N/A,,Overcast,0,2013-12-21 06:26:00
12:49 AM,24.1,23.0,96,29.80,2.0,Calm,Calm,-,N/A,,Overcast,0,2013-12-21 06:49:00
12:56 AM,24.1,23.0,96,29.83,2.5,Calm,Calm,-,N/A,,Overcast,0,2013-12-21 06:56:00
1:07 AM,24.1,23.0,96,29.82,3.0,Calm,Calm,-,N/A,,Overcast,0,2013-12-21 07:07:00
1:56 AM,24.1,21.9,91,29.86,4.0,WNW,3.5,-,N/A,,Overcast,290,2013-12-21 07:56:00
2:27 AM,24.1,21.9,91,29.87,5.0,West,3.5,-,N/A,,Overcast,280,2013-12-21 08:27:00
2:56 AM,24.1,21.9,91,29.89,4.0,West,3.5,-,N/A,,Overcast,260,2013-12-21 08:56:00
3:23 AM,24.1,23.0,96,29.85,2.5,West,3.5,-,N/A,,Overcast,280,2013-12-21 09:23:00
3:48 AM,24.1,21.9,91,29.84,3.0,NW,3.5,-,N/A,,Overcast,320,2013-12-21 09:48:00
3:56 AM,24.1,21.9,91,29.86,3.0,NW,3.5,-,N/A,,Overcast,320,2013-12-21 09:56:00
4:56 AM,24.1,21.9,91,29.84,5.0,North,5.8,-,N/A,,Overcast,350,2013-12-21 10:56:00
5:56 AM,25.0,21.9,88,29.87,6.0,Calm,Calm,-,N/A,,Overcast,0,2013-12-21 11:56:00
6:37 AM,25.0,21.9,88,29.86,6.0,NNE,3.5,-,N/A,,Overcast,20,2013-12-21 12:37:00
6:56 AM,25.0,21.9,88,29.88,6.0,Calm,Calm,-,N/A,,Overcast,0,2013-12-21 12:56:00
7:47 AM,25.0,21.0,85,29.83,5.0,NE,4.6,-,N/A,,Overcast,50,2013-12-21 13:47:00
7:56 AM,25.0,21.0,85,29.86,5.0,ENE,3.5,-,N/A,,Overcast,70,2013-12-21 13:56:00
8:18 AM,25.0,21.0,85,29.85,5.0,NE,4.6,-,N/A,,Overcast,50,2013-12-21 14:18:00
8:56 AM,25.0,21.9,88,29.89,5.0,North,3.5,-,N/A,,Overcast,10,2013-12-21 14:56:00
9:56 AM,25.0,21.9,88,29.90,5.0,NNE,5.8,-,N/A,,Overcast,20,2013-12-21 15:56:00
10:56 AM,26.1,21.9,84,29.90,6.0,NE,5.8,-,N/A,,Overcast,40,2013-12-21 16:56:00
11:56 AM,27.0,21.9,81,29.88,6.0,ENE,4.6,-,N/A,,Haze,70,2013-12-21 17:56:00
12:03 PM,27.0,21.9,81,29.87,7.0,ENE,4.6,-,N/A,,Overcast,70,2013-12-21 18:03:00
12:56 PM,28.0,23.0,81,29.89,7.0,NNE,4.6,-,N/A,,Overcast,20,2013-12-21 18:56:00
1:56 PM,28.0,23.0,81,29.87,6.0,NE,6.9,-,N/A,,Haze,40,2013-12-21 19:56:00
2:56 PM,28.0,24.1,85,29.86,5.0,NNE,10.4,-,N/A,,Overcast,30,2013-12-21 20:56:00
3:12 PM,28.0,24.1,85,29.84,5.0,NNE,10.4,-,N/A,,Overcast,30,2013-12-21 21:12:00
3:56 PM,28.0,24.1,85,29.87,4.0,NNE,6.9,-,N/A,,Overcast,30,2013-12-21 21:56:00
4:26 PM,28.0,24.1,85,29.87,4.0,NNE,4.6,-,N/A,,Overcast,30,2013-12-21 22:26:00
4:37 PM,28.0,24.1,85,29.86,6.0,NE,8.1,-,N/A,,Overcast,50,2013-12-21 22:37:00
4:56 PM,28.0,24.1,85,29.87,7.0,NE,8.1,-,N/A,,Overcast,40,2013-12-21 22:56:00
5:56 PM,28.0,24.1,85,29.86,6.0,NNE,16.1,21.9,N/A,,Overcast,30,2013-12-21 23:56:00
6:30 PM,28.0,24.1,85,29.85,6.0,NE,11.5,-,N/A,,Overcast,40,2013-12-22 00:30:00
6:41 PM,28.0,24.1,85,29.87,6.0,NE,9.2,-,N/A,,Overcast,40,2013-12-22 00:41:00
6:56 PM,28.0,24.1,85,29.88,6.0,NE,11.5,-,N/A,,Overcast,40,2013-12-22 00:56:00
7:38 PM,28.0,24.1,85,29.86,6.0,NNE,12.7,-,N/A,,Overcast,30,2013-12-22 01:38:00
7:56 PM,28.0,24.1,85,29.86,7.0,NE,13.8,-,N/A,,Overcast,40,2013-12-22 01:56:00
8:37 PM,28.0,23.0,81,29.82,10.0,NE,17.3,25.3,N/A,,Overcast,40,2013-12-22 02:37:00
8:56 PM,28.0,21.9,78,29.83,10.0,NE,17.3,-,N/A,,Overcast,40,2013-12-22 02:56:00
9:56 PM,28.0,21.0,75,29.76,10.0,NE,16.1,24.2,N/A,,Overcast,40,2013-12-22 03:56:00
10:21 PM,27.0,21.9,81,29.76,10.0,NNE,18.4,27.6,N/A,,Overcast,30,2013-12-22 04:21:00
10:56 PM,27.0,21.9,81,29.78,9.0,NNE,15.0,23.0,N/A,,Overcast,30,2013-12-22 04:56:00
11:56 PM,28.0,23.0,81,29.83,10.0,North,13.8,-,N/A,,Overcast,10,2013-12-22 05:56:00